Regional Weather Roundup
Issued by NWS

Home | Current Version | Previous Version | Text Only | Print | Product List | Glossary On
Versions: 1 2 3 4 5 6 7 8 9 10 11 12 13 14 15 16 17 18 19 20 21 22 23 24 25 26 27 28 29 30 31 32 33 34 35 36 37 38 39 40 41 42 43 44 45 46 47 48 49 50
000
ASUS45 KBOI 051810
RWRID

IDAHO REGIONAL WEATHER ROUNDUP
NATIONAL WEATHER SERVICE BOISE ID
1100 AM MST MON DEC 05 2016

NOTE: "FAIR" INDICATES FEW OR NO CLOUDS BELOW 12000 FEET
WITH NO SIGNIFICANT WEATHER AND/OR OBSTRUCTIONS TO VISIBILITY

IDZ012-014-051900-
SOUTHWEST IDAHO


CITY           SKY/WX    TMP DP  RH WIND       PRES   REMARKS
BOISE          SUNNY     28  18  66 SE5       30.16  WCI  23
CALDWELL       SUNNY     31  19  61 CALM      30.18S
MOUNTAIN HOME  SUNNY     30  19  61 SW3       30.15F
$$

IDZ016-017-051900-
SOUTHCENTRAL IDAHO


CITY           SKY/WX    TMP DP  RH WIND       PRES   REMARKS
BURLEY         SUNNY     24  14  65 W20G25    30.09  WCI  10
JEROME         SUNNY     24  17  74 SW15      30.11  WCI  11
TWIN FALLS     SUNNY     24  15  68 SW12      30.11  WCI  13
$$

IDZ019>023-051900-
SOUTHEAST IDAHO


CITY           SKY/WX    TMP DP  RH WIND       PRES   REMARKS
IDAHO FALLS    MOSUNNY   23  12  62 SW14      30.00  WCI  11
POCATELLO      MOSUNNY   21  16  81 SW21      30.06  WCI   5
REXBURG        SUNNY     20   4  50 SW3       29.99
$$

IDZ006-010-011-018-031-032-051900-
CENTRAL IDAHO MOUNTAINS


CITY           SKY/WX    TMP DP  RH WIND       PRES   REMARKS
MCCALL         MOSUNNY    8   6  92 S3        30.01S FOG
HAILEY         SUNNY     16   3  57 NW10      30.03S WCI   3
STANLEY          N/A      1  -4  79 NW3       29.97S
SALMON         SUNNY     21   7  53 CALM      30.04R
CHALLIS        SUNNY     20   7  57 SE10      30.00S WCI   9
$$

IDZ002-004-006-007-026-051900-
NORTHERN IDAHO


CITY           SKY/WX    TMP DP  RH WIND       PRES   REMARKS
LEWISTON       SUNNY     33  20  58 CALM      30.12F
LOWELL           N/A     31  26  82 CALM      30.18S
COEUR D`ALENE  MOSUNNY   28  22  78 S9        30.08S WCI  19
MULLAN PASS    MOSUNNY   11   8  88 VRB6      29.85R WCI   1
$$



USA.gov is the U.S. government's official web portal to all federal, state and local government web resources and services.